Hourly Weather Barnim

Today, 27 September, Sunday

Time Temperature Precipitation Wind Pressure Humidity
00:00 +10°C° 0 mm 3 mps 746 mmHg 87%
01:00 +10°C° 0 mm 2 mps 747 mmHg 89%
02:00 +10°C° 0 mm 2 mps 747 mmHg 89%
03:00 +10°C° 0 mm 2 mps 747 mmHg 89%
04:00 +9°C° 0 mm 2 mps 747 mmHg 89%
05:00 +9°C° 0.4 mm 2 mps 747 mmHg 90%
06:00 +9°C° 0.4 mm 2 mps 748 mmHg 91%
07:00 +9°C° 0 mm 2 mps 748 mmHg 90%
08:00 +9°C° 1.3 mm 2 mps 748 mmHg 91%
09:00 +8°C° 1.3 mm 3 mps 748 mmHg 93%
10:00 +8°C° 1.3 mm 3 mps 748 mmHg 94%
11:00 +7°C° 1.1 mm 4 mps 748 mmHg 94%
12:00 +7°C° 1.1 mm 4 mps 749 mmHg 94%
13:00 +7°C° 1.1 mm 4 mps 749 mmHg 93%
14:00 +8°C° 1.2 mm 4 mps 749 mmHg 94%
15:00 +8°C° 1.2 mm 4 mps 749 mmHg 94%
16:00 +8°C° 1.2 mm 5 mps 749 mmHg 94%
17:00 +8°C° 0.8 mm 4 mps 750 mmHg 94%
18:00 +8°C° 0.8 mm 4 mps 750 mmHg 94%
19:00 +9°C° 0.8 mm 3 mps 751 mmHg 94%
20:00 +9°C° 0.2 mm 3 mps 751 mmHg 94%
21:00 +9°C° 0.2 mm 3 mps 752 mmHg 93%
22:00 +8°C° 0.2 mm 4 mps 753 mmHg 93%
23:00 +9°C° 0.1 mm 3 mps 753 mmHg 92%

Tomorrow, 28 September, Monday

Time Temperature Precipitation Wind Pressure Humidity
00:00 +10°C° 0.1 mm 2 mps 753 mmHg 92%
01:00 +10°C° 0.1 mm 2 mps 754 mmHg 92%
02:00 +9°C° 0 mm 2 mps 754 mmHg 92%
03:00 +9°C° 0 mm 2 mps 754 mmHg 92%
04:00 +8°C° 0 mm 3 mps 755 mmHg 93%
05:00 +8°C° 0 mm 3 mps 755 mmHg 92%
06:00 +8°C° 0 mm 3 mps 756 mmHg 91%
07:00 +8°C° 0 mm 3 mps 756 mmHg 90%
08:00 +10°C° 0 mm 3 mps 756 mmHg 83%
09:00 +12°C° 0 mm 3 mps 756 mmHg 76%
10:00 +14°C° 0 mm 4 mps 757 mmHg 70%
11:00 +15°C° 0 mm 4 mps 757 mmHg 65%
12:00 +17°C° 0 mm 4 mps 757 mmHg 60%
13:00 +18°C° 0 mm 4 mps 757 mmHg 55%
14:00 +18°C° 0 mm 3 mps 757 mmHg 57%
15:00 +18°C° 0 mm 3 mps 757 mmHg 58%
16:00 +18°C° 0 mm 2 mps 757 mmHg 60%
17:00 +17°C° 0 mm 2 mps 757 mmHg 62%
18:00 +16°C° 0 mm 2 mps 757 mmHg 65%
19:00 +15°C° 0 mm 2 mps 757 mmHg 67%
20:00 +15°C° 0 mm 2 mps 757 mmHg 69%
21:00 +14°C° 0 mm 2 mps 758 mmHg 70%
22:00 +14°C° 0 mm 1 mps 758 mmHg 72%
23:00 +14°C° 0 mm 1 mps 758 mmHg 73%

Day after tomorrow, 29 September, Tuesday

Time Temperature Precipitation Wind Pressure Humidity
00:00 +14°C° 0 mm 1 mps 758 mmHg 74%
01:00 +14°C° 0 mm 2 mps 758 mmHg 74%
02:00 +14°C° 0 mm 2 mps 758 mmHg 75%
03:00 +13°C° 0 mm 2 mps 758 mmHg 76%
04:00 +13°C° 0 mm 2 mps 758 mmHg 76%
05:00 +13°C° 0 mm 2 mps 758 mmHg 77%
06:00 +13°C° 0 mm 2 mps 758 mmHg 77%
07:00 +13°C° 0 mm 2 mps 758 mmHg 77%
08:00 +14°C° 0 mm 1 mps 758 mmHg 73%
09:00 +15°C° 0 mm 1 mps 759 mmHg 70%
10:00 +16°C° 0 mm 1 mps 759 mmHg 66%
11:00 +18°C° 0 mm 1 mps 759 mmHg 62%
12:00 +19°C° 0 mm 1 mps 759 mmHg 57%
13:00 +21°C° 0 mm 1 mps 759 mmHg 53%
14:00 +21°C° 0 mm 1 mps 759 mmHg 53%
15:00 +20°C° 0 mm 1 mps 758 mmHg 54%
16:00 +20°C° 0 mm 1 mps 758 mmHg 55%
17:00 +19°C° 0 mm 1 mps 759 mmHg 61%
18:00 +16°C° 0 mm 1 mps 759 mmHg 68%
19:00 +14°C° 0 mm 1 mps 759 mmHg 74%
20:00 +14°C° 0 mm 1 mps 759 mmHg 76%
21:00 +13°C° 0 mm 1 mps 759 mmHg 77%
22:00 +13°C° 0 mm 1 mps 759 mmHg 79%
23:00 +12°C° 0 mm 1 mps 759 mmHg 79%

30 September, Wednesday

Time Temperature Precipitation Wind Pressure Humidity
00:00 +12°C° 0 mm 1 mps 759 mmHg 80%
01:00 +12°C° 0 mm 1 mps 759 mmHg 81%
02:00 +11°C° 0 mm 1 mps 759 mmHg 82%
03:00 +11°C° 0 mm 1 mps 759 mmHg 83%
04:00 +10°C° 0 mm 0 mps 759 mmHg 84%
05:00 +11°C° 0 mm 1 mps 759 mmHg 83%
06:00 +11°C° 0 mm 1 mps 759 mmHg 82%
07:00 +11°C° 0 mm 1 mps 759 mmHg 82%
08:00 +13°C° 0 mm 1 mps 759 mmHg 75%
09:00 +15°C° 0 mm 1 mps 759 mmHg 68%
10:00 +18°C° 0 mm 1 mps 759 mmHg 62%
11:00 +19°C° 0 mm 1 mps 759 mmHg 58%
12:00 +18°C° 0 mm 0 mps 758 mmHg 53%
13:00 +19°C° 0 mm 0 mps 758 mmHg 49%
14:00 +19°C° 0 mm 0 mps 758 mmHg 50%
15:00 +19°C° 0 mm 0 mps 758 mmHg 51%
16:00 +18°C° 0 mm 0 mps 757 mmHg 52%
17:00 +17°C° 0 mm 0 mps 757 mmHg 56%
18:00 +15°C° 0 mm 0 mps 757 mmHg 60%
19:00 +14°C° 0 mm 1 mps 758 mmHg 64%
20:00 +14°C° 0 mm 1 mps 757 mmHg 67%
21:00 +13°C° 0 mm 1 mps 757 mmHg 70%
22:00 +13°C° 0 mm 1 mps 757 mmHg 73%
23:00 +13°C° 0 mm 1 mps 757 mmHg 77%

1 October, Thursday

Time Temperature Precipitation Wind Pressure Humidity
00:00 +12°C° 0 mm 1 mps 757 mmHg 80%
01:00 +12°C° 0 mm 1 mps 756 mmHg 84%
02:00 +12°C° 0 mm 1 mps 756 mmHg 86%
03:00 +12°C° 0 mm 1 mps 756 mmHg 88%
04:00 +12°C° 0 mm 1 mps 755 mmHg 91%
05:00 +12°C° 0 mm 1 mps 755 mmHg 90%
06:00 +12°C° 0 mm 2 mps 755 mmHg 90%
07:00 +12°C° 0 mm 2 mps 754 mmHg 90%
08:00 +14°C° 0 mm 2 mps 754 mmHg 82%
09:00 +16°C° 0 mm 2 mps 754 mmHg 74%
10:00 +18°C° 0 mm 3 mps 753 mmHg 67%
11:00 +19°C° 0 mm 3 mps 753 mmHg 63%
12:00 +19°C° 0 mm 3 mps 752 mmHg 60%
13:00 +20°C° 0 mm 3 mps 751 mmHg 57%
14:00 +20°C° 0 mm 3 mps 751 mmHg 59%
15:00 +20°C° 0 mm 3 mps 750 mmHg 61%
16:00 +20°C° 0 mm 3 mps 750 mmHg 63%
17:00 +18°C° 0 mm 3 mps 750 mmHg 69%
18:00 +17°C° 0 mm 4 mps 750 mmHg 74%
19:00 +14°C° 0 mm 4 mps 750 mmHg 80%
20:00 +14°C° 0 mm 4 mps 749 mmHg 81%
21:00 +14°C° 0 mm 4 mps 749 mmHg 82%
22:00 +13°C° 0 mm 5 mps 749 mmHg 83%
23:00 +13°C° 0 mm 5 mps 749 mmHg 84%

2 October, Friday

Time Temperature Precipitation Wind Pressure Humidity
00:00 +13°C° 0 mm 5 mps 748 mmHg 85%
01:00 +13°C° 0 mm 5 mps 748 mmHg 86%
02:00 +13°C° 0 mm 5 mps 748 mmHg 87%
03:00 +12°C° 0 mm 5 mps 748 mmHg 88%
04:00 +12°C° 0 mm 5 mps 748 mmHg 88%
05:00 +13°C° 0 mm 5 mps 748 mmHg 87%
06:00 +13°C° 0 mm 5 mps 748 mmHg 85%
07:00 +13°C° 0 mm 5 mps 748 mmHg 83%
08:00 +13°C° 0.1 mm 5 mps 748 mmHg 84%
09:00 +13°C° 0.1 mm 4 mps 749 mmHg 85%
10:00 +13°C° 0.1 mm 4 mps 749 mmHg 86%
11:00 +14°C° 0.6 mm 4 mps 749 mmHg 86%
12:00 +14°C° 0.6 mm 4 mps 749 mmHg 85%
13:00 +14°C° 0.6 mm 3 mps 749 mmHg 85%
14:00 +16°C° 0 mm 3 mps 749 mmHg 83%
15:00 +16°C° 0 mm 3 mps 749 mmHg 81%
16:00 +17°C° 0 mm 2 mps 749 mmHg 79%
17:00 +16°C° 0 mm 2 mps 749 mmHg 80%
18:00 +16°C° 0 mm 2 mps 749 mmHg 81%
19:00 +15°C° 0 mm 2 mps 749 mmHg 83%
20:00 +15°C° 0 mm 2 mps 749 mmHg 84%
21:00 +15°C° 0 mm 2 mps 749 mmHg 85%
22:00 +14°C° 0 mm 2 mps 749 mmHg 86%
23:00 +13°C° 0 mm 3 mps 749 mmHg 87%
Show more